Wind_Speed
5 4 4 3 3 2 1 1 1 0 0 1 1 2 3 3 3 4 4 5 6 6 7 7 7 8 8 8 9 9 9 9 9 9 9 8 8 8 9 9 9 9 9
3 3 2 2 1 1 1 1 0 1 2 2 3 3 4 4 3 5 5 6 6 7 7 8 8 9 9 9 9 9 10 10 10 9 10 11 10 10 11 10 10 10 10
2 2 2 2 1 1 1 1 1 2 2 3 4 4 4 5 5 6 6 7 7 8 9 9 9 10 11 10 10 10 10 10 11 11 11 10 10 10 11 11 11 11 11
2 2 1 1 1 2 2 2 2 2 3 4 5 5 6 7 7 8 8 8 8 9 10 10 10 10 11 11 11 11 11 11 11 11 12 12 12 11 11 11 12 12 12
2 2 2 2 2 2 2 2 3 4 4 5 6 6 7 8 8 9 9 9 10 10 10 11 11 11 11 11 12 12 12 12 12 12 12 12 12 12 11 12 12 13 14
4 3 3 3 3 3 3 4 4 5 5 6 7 7 8 9 9 9 10 10 10 10 11 11 12 12 12 13 12 12 12 13 12 13 13 13 14 14 12 13 14 13 14
5 4 3 3 4 4 4 5 5 5 6 7 8 8 8 9 10 10 11 11 11 11 11 12 12 13 13 14 13 13 13 13 13 14 14 15 15 14 13 13 13 14 14
4 4 3 3 4 5 5 5 6 7 7 8 8 9 9 10 10 11 12 12 13 13 13 13 13 13 14 14 14 14 14 14 14 14 15 15 15 14 14 14 14 14 15
5 5 4 4 5 6 6 6 7 8 8 8 9 9 9 10 10 12 12 13 13 14 14 14 14 14 14 14 14 15 14 14 14 14 15 15 16 15 14 14 14 14 14
5 6 6 6 6 7 7 7 8 8 9 9 10 10 11 11 12 12 13 13 14 14 14 14 15 15 15 15 15 16 16 16 15 15 16 16 17 16 15 15 15 14 14
6 7 7 7 7 7 8 8 8 9 9 10 11 11 12 12 13 13 14 14 14 15 15 16 16 15 15 15 16 16 16 16 16 16 16 17 17 17 17 16 15 15 15
7 8 8 8 8 8 8 9 9 9 10 11 11 12 13 14 14 14 15 15 15 15 16 16 16 16 16 16 17 17 17 16 17 16 16 16 16 17 17 16 15 15 14
8 8 9 9 9 10 10 9 10 10 11 12 13 14 15 15 15 15 16 16 16 16 16 16 16 16 16 16 17 17 17 17 17 17 17 16 16 16 16 16 15 15 15
9 10 10 10 10 10 10 11 11 12 13 14 14 15 16 16 16 16 16 16 16 17 17 16 17 17 17 17 17 17 17 18 18 18 17 17 16 16 16 16 15 15 15
10 11 11 11 11 11 11 11 12 13 14 15 16 16 17 17 17 17 17 17 17 17 17 17 17 17 17 18 17 17 17 17 17 17 17 17 16 17 16 15 14 14 14
12 12 12 12 12 13 13 13 13 13 15 16 16 17 17 18 18 18 18 18 17 18 18 17 17 17 17 17 17 17 17 17 17 17 16 16 16 16 15 15 15 15 14
14 14 14 14 14 14 15 15 15 15 15 16 17 18 18 18 18 18 18 18 18 18 18 18 18 18 17 18 18 17 18 18 17 17 16 16 15 15 15 15 15 14 14
16 16 15 15 15 15 16 16 16 16 17 17 18 19 19 19 19 19 18 18 18 18 18 18 18 18 18 18 17 17 18 18 17 17 16 15 14 14 15 15 14 14 14
17 17 17 17 17 17 17 17 18 18 18 18 19 19 20 20 20 20 20 20 19 20 20 20 19 19 18 17 17 17 17 17 17 17 16 15 14 14 15 15 15 15 15
19 18 18 19 19 19 19 19 19 19 20 20 20 20 20 21 20 21 21 21 21 21 21 21 20 19 19 18 18 18 18 17 17 16 15 14 15 15 16 16 16 16 17
21 20 20 21 21 20 20 21 20 21 21 21 21 21 22 21 21 21 22 22 22 21 21 20 20 20 19 19 19 19 19 18 18 16 15 15 16 16 16 16 17 17 17
23 22 23 22 22 23 23 22 21 22 22 22 22 22 22 22 22 22 21 22 22 21 21 20 20 19 19 19 19 19 19 18 17 16 16 16 16 16 16 17 17 17 18
25 25 24 24 25 25 26 24 23 24 24 24 24 23 23 23 23 22 22 22 22 22 21 21 21 20 20 21 20 20 19 18 18 17 17 18 18 17 17 17 18 18 19
28 27 26 26 26 28 27 26 26 25 25 25 25 25 25 25 25 24 23 23 23 23 23 23 22 22 22 21 21 21 21 20 20 20 19 19 20 19 19 19 19 19 20
28 29 29 29 29 29 28 28 27 27 27 27 27 27 27 26 26 26 25 25 25 25 25 24 24 24 23 23 23 23 22 22 22 22 22 21 21 21 20 20 20 20 21
30 31 31 31 31 31 31 31 29 29 29 29 29 29 28 27 27 27 27 27 26 26 26 26 25 25 25 24 25 24 24 23 23 24 23 23 23 23 23 22 22 21 22
Wind_Direction
119 121 123 112 111 124 135 118 134 112 14 313 313 325 325 332 313 305 313 320 322 315 310 305 305 303 304 301 293 292 293 290 284 279 273 274 272 272 273 273 275 279 282
121 110 103 89 89 108 114 107 187 345 345 329 318 318 311 308 306 305 314 312 315 316 311 306 306 306 303 297 292 287 289 289 286 281 278 274 274 273 270 272 274 277 283
125 111 101 84 66 30 13 357 334 339 342 332 325 322 312 307 305 308 310 312 312 309 308 306 302 303 303 300 293 287 285 289 285 282 284 284 280 279 277 273 270 274 278
111 112 91 59 31 11 3 347 344 334 331 325 321 315 309 311 309 305 308 310 309 308 306 307 304 302 304 301 295 289 289 287 286 285 286 286 282 284 284 276 273 272 276
77 61 30 28 15 10 2 349 341 334 330 327 322 314 309 310 310 307 307 307 307 308 305 304 304 305 304 305 301 295 294 292 288 289 292 289 285 284 286 280 274 275 277
51 49 34 18 6 358 352 350 342 335 329 325 322 319 315 310 310 309 308 306 306 306 308 307 304 305 305 305 302 298 297 296 291 292 292 290 287 284 282 280 275 276 278
50 38 17 11 3 354 348 345 337 337 333 326 322 321 316 312 313 310 310 306 306 305 306 305 304 302 301 302 299 298 297 296 292 291 291 293 291 288 283 281 279 275 275
34 25 14 3 356 355 347 339 333 331 328 327 327 325 322 321 318 315 313 311 308 308 308 304 302 300 298 300 302 301 298 295 293 292 291 290 290 285 281 280 280 279 274
32 19 8 2 354 348 340 331 329 327 325 324 326 326 324 324 321 317 313 310 308 308 307 304 304 303 298 298 298 299 300 295 293 292 292 291 291 288 284 281 281 280 277
10 1 353 350 345 340 334 330 331 329 327 323 324 324 321 320 320 317 313 310 308 307 307 305 304 303 298 299 299 298 296 294 293 293 289 290 289 290 291 286 280 276 277
1 354 343 338 333 331 329 329 330 328 325 323 322 320 320 321 318 317 316 315 311 309 307 305 304 304 303 301 298 297 296 294 292 292 290 288 287 288 289 287 279 277 277
354 354 349 338 333 331 328 325 325 325 325 324 323 320 318 318 320 319 317 316 313 309 307 305 304 302 304 303 299 297 297 294 292 291 291 289 287 288 287 284 279 279 279
352 350 348 342 335 330 326 323 320 321 323 321 321 321 319 317 316 317 316 315 313 310 308 306 305 305 306 306 303 299 297 296 296 293 292 291 289 287 284 281 277 277 278
347 344 341 340 338 333 325 321 319 320 320 318 317 318 318 316 314 315 316 316 315 312 308 306 305 305 304 304 305 303 298 298 298 296 293 289 287 286 283 282 277 277 279
338 336 335 332 331 330 326 322 321 321 320 320 318 318 318 316 315 314 314 315 315 313 310 306 304 305 304 303 303 303 301 302 302 299 294 289 285 284 282 280 277 279 280
328 329 330 330 328 326 326 323 322 320 317 317 318 318 316 314 313 313 312 312 314 316 312 309 307 305 306 306 305 301 302 302 302 301 297 291 287 284 283 281 280 282 280
324 324 322 323 323 322 323 320 319 320 317 316 317 316 315 315 313 311 311 311 312 314 313 312 309 307 305 304 305 305 302 301 301 300 296 292 285 281 282 283 282 279 281
320 320 319 317 317 317 318 316 315 316 315 315 315 316 315 313 312 311 310 308 309 310 309 309 309 308 305 304 303 303 301 300 299 299 297 292 287 282 282 281 278 279 281
315 314 314 312 311 310 310 311 311 312 313 314 315 316 316 314 313 311 310 308 307 308 308 308 305 304 303 303 303 302 301 300 298 298 294 290 289 287 284 280 280 281 283
307 308 307 308 308 306 304 305 307 308 309 311 314 315 315 312 312 311 309 307 306 306 308 307 305 303 302 302 302 302 302 301 300 298 293 290 289 288 285 281 280 282 284
303 304 305 305 306 305 304 302 302 303 305 308 310 310 310 310 311 310 308 307 306 305 306 306 305 303 302 303 303 303 301 300 300 295 293 290 291 289 287 284 281 283 284
302 302 303 303 302 301 300 299 298 299 301 304 306 307 308 309 308 308 309 309 307 306 306 305 303 303 301 301 301 303 302 301 298 294 292 289 288 287 286 286 285 285 286
300 298 299 300 299 297 297 297 297 297 298 300 302 303 303 303 303 304 305 306 306 305 305 304 304 302 300 299 300 301 300 298 296 294 290 288 286 286 286 286 285 286 288
300 300 299 299 298 296 295 295 296 296 296 297 298 301 301 301 300 300 301 302 303 304 304 302 301 300 298 297 297 298 297 296 295 295 293 289 287 285 285 287 287 288 290
299 300 300 299 297 295 293 295 295 295 296 296 297 297 298 299 299 299 299 300 301 301 300 299 299 297 295 294 294 293 293 292 291 291 291 290 287 284 284 286 287 289 291
297 297 297 299 297 295 294 293 294 294 295 295 295 295 296 296 297 297 297 297 298 298 298 298 298 297 295 293 293 293 291 289 287 288 289 288 286 284 284 286 287 287 289
Height
5889 5889 5890 5891 5892 5892 5892 5893 5893 5893 5894 5894 5894 5894 5894 5894 5894 5894 5893 5893 5893 5892 5892 5892 5891 5891 5890 5890 5890 5890 5889 5889 5889 5888 5888 5888 5888 5888 5888 5888 5888 5888 5887
5890 5891 5891 5892 5892 5892 5893 5893 5894 5894 5894 5894 5894 5894 5894 5894 5893 5893 5892 5892 5892 5891 5891 5891 5890 5890 5889 5888 5888 5888 5888 5887 5887 5886 5886 5886 5886 5886 5886 5886 5886 5886 5885
5891 5891 5892 5892 5892 5893 5893 5893 5894 5894 5894 5894 5894 5893 5893 5893 5892 5892 5892 5891 5891 5890 5890 5889 5889 5888 5887 5886 5886 5886 5885 5885 5885 5884 5884 5884 5883 5883 5883 5883 5883 5883 5883
5891 5892 5892 5893 5893 5893 5893 5893 5893 5894 5894 5894 5893 5893 5893 5892 5891 5891 5891 5890 5889 5889 5888 5887 5887 5886 5885 5884 5884 5883 5883 5882 5882 5882 5882 5881 5881 5880 5880 5880 5880 5880 5880
5892 5892 5893 5893 5893 5893 5893 5893 5893 5893 5893 5893 5893 5892 5892 5891 5890 5890 5889 5888 5887 5887 5886 5885 5885 5884 5883 5883 5882 5881 5881 5880 5880 5880 5879 5878 5878 5878 5877 5877 5877 5877 5877
5893 5893 5893 5893 5893 5893 5893 5893 5893 5893 5893 5892 5892 5891 5891 5890 5889 5888 5887 5886 5885 5885 5884 5883 5883 5882 5881 5880 5880 5879 5878 5878 5877 5877 5876 5876 5875 5875 5874 5874 5874 5873 5873
5894 5894 5894 5894 5894 5894 5893 5893 5893 5892 5892 5891 5891 5890 5889 5888 5888 5887 5886 5885 5883 5882 5882 5881 5880 5879 5878 5878 5877 5876 5875 5875 5874 5874 5873 5872 5872 5871 5871 5870 5870 5870 5870
5895 5895 5894 5894 5894 5894 5893 5893 5892 5892 5891 5890 5890 5889 5888 5888 5886 5885 5884 5883 5882 5880 5880 5879 5877 5876 5875 5875 5874 5873 5872 5872 5871 5870 5870 5869 5868 5868 5867 5867 5867 5866 5866
5896 5895 5895 5894 5894 5894 5893 5892 5892 5891 5890 5890 5889 5888 5887 5886 5885 5883 5882 5881 5879 5878 5877 5876 5875 5874 5872 5871 5871 5870 5869 5868 5868 5867 5866 5865 5865 5864 5864 5863 5863 5862 5862
5896 5895 5895 5894 5894 5893 5893 5892 5891 5890 5889 5888 5887 5886 5885 5884 5883 5881 5880 5878 5877 5876 5875 5873 5872 5870 5869 5868 5867 5866 5865 5865 5864 5863 5862 5862 5861 5860 5860 5859 5859 5858 5858
5896 5895 5895 5894 5893 5893 5892 5891 5890 5889 5888 5887 5886 5885 5883 5882 5880 5879 5878 5876 5875 5873 5872 5870 5869 5867 5866 5865 5864 5863 5862 5861 5860 5859 5858 5858 5857 5856 5856 5855 5855 5854 5854
5896 5895 5894 5893 5893 5892 5891 5890 5889 5888 5887 5886 5884 5883 5882 5880 5878 5877 5875 5873 5872 5870 5869 5867 5865 5864 5862 5861 5860 5859 5858 5857 5856 5855 5854 5853 5853 5852 5852 5851 5851 5851 5850
5896 5895 5894 5893 5892 5891 5890 5889 5888 5887 5886 5884 5883 5881 5880 5878 5876 5874 5872 5871 5869 5867 5865 5864 5862 5861 5859 5858 5856 5855 5854 5853 5852 5851 5850 5849 5848 5848 5847 5847 5847 5847 5846
5896 5894 5893 5892 5891 5890 5889 5888 5887 5885 5884 5882 5880 5879 5877 5875 5873 5871 5869 5868 5865 5864 5862 5860 5858 5857 5856 5854 5852 5851 5850 5849 5848 5846 5845 5845 5844 5843 5842 5842 5842 5842 5842
5895 5894 5892 5891 5890 5888 5887 5886 5884 5883 5881 5880 5878 5876 5874 5872 5870 5868 5866 5864 5863 5860 5858 5856 5855 5853 5852 5850 5848 5847 5846 5845 5843 5842 5841 5840 5839 5839 5838 5838 5838 5838 5838
5893 5892 5891 5889 5888 5886 5885 5884 5882 5881 5879 5877 5875 5873 5871 5869 5867 5865 5863 5861 5859 5857 5855 5853 5851 5849 5848 5846 5844 5843 5842 5840 5839 5837 5836 5835 5835 5835 5834 5834 5834 5833 5833
5892 5890 5889 5887 5886 5884 5883 5881 5880 5878 5876 5874 5872 5870 5868 5866 5863 5861 5859 5857 5855 5854 5852 5850 5848 5846 5844 5842 5841 5839 5837 5836 5835 5833 5832 5831 5831 5830 5830 5829 5829 5829 5829
5890 5888 5886 5884 5883 5881 5880 5878 5877 5875 5873 5871 5869 5867 5864 5862 5860 5857 5855 5853 5852 5850 5848 5846 5844 5842 5840 5839 5837 5835 5834 5832 5831 5829 5828 5827 5826 5826 5825 5825 5825 5825 5824
5887 5885 5883 5882 5880 5878 5877 5875 5873 5871 5869 5867 5865 5863 5861 5858 5856 5853 5851 5849 5847 5846 5844 5842 5840 5838 5836 5834 5833 5831 5830 5828 5827 5825 5824 5823 5822 5822 5821 5821 5821 5820 5820
5883 5881 5880 5878 5876 5875 5873 5871 5869 5867 5866 5864 5861 5859 5857 5854 5852 5849 5847 5845 5843 5841 5839 5837 5835 5833 5832 5830 5828 5827 5825 5824 5823 5821 5820 5819 5818 5818 5817 5817 5816 5816 5815
5878 5877 5875 5874 5872 5870 5868 5866 5865 5863 5861 5860 5857 5855 5853 5850 5848 5845 5842 5840 5838 5836 5834 5832 5830 5828 5827 5825 5824 5822 5821 5819 5818 5817 5816 5815 5814 5813 5812 5812 5811 5810 5810
5874 5872 5870 5868 5867 5865 5864 5861 5860 5858 5857 5855 5853 5850 5848 5846 5843 5841 5838 5836 5834 5832 5830 5827 5825 5824 5822 5821 5819 5818 5816 5815 5814 5813 5811 5811 5810 5809 5808 5807 5806 5805 5804
5869 5867 5865 5863 5862 5860 5858 5856 5854 5852 5851 5849 5847 5845 5843 5840 5838 5836 5834 5831 5829 5827 5825 5823 5821 5819 5817 5815 5814 5812 5811 5810 5809 5808 5807 5805 5804 5804 5803 5802 5801 5800 5799
5863 5861 5859 5857 5856 5854 5851 5850 5848 5847 5845 5843 5841 5839 5837 5835 5832 5830 5828 5826 5824 5822 5819 5817 5816 5814 5812 5810 5809 5807 5806 5805 5803 5802 5801 5800 5799 5798 5797 5796 5795 5794 5793
5857 5855 5853 5851 5849 5847 5845 5843 5841 5840 5838 5836 5835 5833 5830 5828 5826 5824 5822 5820 5818 5816 5814 5811 5810 5808 5806 5804 5803 5801 5800 5799 5797 5796 5795 5794 5793 5792 5791 5790 5789 5788 5786
5850 5848 5846 5844 5842 5840 5838 5836 5834 5833 5831 5829 5827 5825 5823 5821 5819 5817 5815 5813 5811 5809 5807 5805 5803 5802 5800 5798 5796 5795 5793 5792 5790 5789 5788 5787 5786 5785 5784 5784 5782 5781 5780